| time (UTC) | temp C | wind direction | speed KPH | gust KPH | rain 1hr cm | rain 24hr cm | rain mn cm | humidity % | barometer mb |
| 20260503215233 | 32 | 320 | 6.4 | 16.1 | 0.00 | 0.00 | 0.00 | 18 | 979.3 |
| 20260503214733 | 32 | 341 | 8.0 | 17.7 | 0.00 | 0.00 | 0.00 | 18 | 979.5 |
| 20260503213732 | 32 | 353 | 1.6 | 16.1 | 0.00 | 0.00 | 0.00 | 17 | 979.5 |
| 20260503213233 | 32 | 338 | 6.4 | 17.7 | 0.00 | 0.00 | 0.00 | 17 | 979.4 |
| 20260503212733 | 32 | 330 | 1.6 | 17.7 | 0.00 | 0.00 | 0.00 | 17 | 979.5 |
| 20260503212232 | 32 | 348 | 6.4 | 16.1 | 0.00 | 0.00 | 0.00 | 17 | 979.6 |
| 20260503211732 | 32 | 343 | 4.8 | 11.3 | 0.00 | 0.00 | 0.00 | 16 | 979.6 |
| 20260503211231 | 32 | 331 | 0.0 | 11.3 | 0.00 | 0.00 | 0.00 | 17 | 979.7 |
| 20260503210732 | 32 | 330 | 0.0 | 19.3 | 0.00 | 0.00 | 0.00 | 17 | 979.7 |
| 20260503210235 | 32 | 327 | 3.2 | 19.3 | 0.00 | 0.00 | 0.00 | 16 | 979.8 |
| 20260503205736 | 32 | 358 | 3.2 | 16.1 | 0.00 | 0.00 | 0.00 | 17 | 979.7 |
| 20260503205236 | 32 | 350 | 1.6 | 16.1 | 0.00 | 0.00 | 0.00 | 17 | 979.7 |
| 20260503204735 | 32 | 324 | 3.2 | 19.3 | 0.00 | 0.00 | 0.00 | 17 | 979.5 |
| 20260503204235 | 32 | 347 | 4.8 | 19.3 | 0.00 | 0.00 | 0.00 | 17 | 979.6 |
| 20260503203238 | 32 | 324 | 1.6 | 11.3 | 0.00 | 0.00 | 0.00 | 17 | 979.4 |
| 20260503201736 | 32 | 314 | 1.6 | 17.7 | 0.00 | 0.00 | 0.00 | 18 | 979.2 |
| 20260503201236 | 32 | 330 | 3.2 | 17.7 | 0.00 | 0.00 | 0.00 | 18 | 979.5 |
| 20260503200736 | 32 | 323 | 0.0 | 17.7 | 0.00 | 0.00 | 0.00 | 19 | 979.7 |
| 20260503200236 | 32 | 313 | 8.0 | 17.7 | 0.00 | 0.00 | 0.00 | 19 | 979.9 |
| 20260503195736 | 32 | 323 | 3.2 | 9.7 | 0.00 | 0.00 | 0.00 | 19 | 979.9 |
| 20260503195234 | 32 | 312 | 0.0 | 8.0 | 0.00 | 0.00 | 0.00 | 19 | 979.9 |
| 20260503194735 | 31 | 312 | 1.6 | 8.0 | 0.00 | 0.00 | 0.00 | 20 | 979.8 |
| 20260503194235 | 31 | 38 | 0.0 | 16.1 | 0.00 | 0.00 | 0.00 | 21 | 979.8 |
| 20260503193235 | 31 | 321 | 0.0 | 4.8 | 0.00 | 0.00 | 0.00 | 21 | 979.8 |
| 20260503192732 | -17 | 0.0 | 0.0 | 0.00 | 0.00 | 0.00 | 979.9 | ||
| 20260503192233 | -17 | 300 | 1.6 | 3.2 | 0.00 | 0.00 | 0.00 | 980.1 | |
| 20260503191232 | 31 | 313 | 0.0 | 3.2 | 0.00 | 0.00 | 0.00 | 20 | 980.4 |
| 20260503190733 | 31 | 276 | 0.0 | 3.2 | 0.00 | 0.00 | 0.00 | 21 | 980.3 |
| 20260503190233 | 31 | 313 | 3.2 | 11.3 | 0.00 | 0.00 | 0.00 | 21 | 980.5 |
| 20260503185732 | 31 | 310 | 3.2 | 11.3 | 0.00 | 0.00 | 0.00 | 21 | 980.5 |
| 20260503185232 | 31 | 316 | 0.0 | 8.0 | 0.00 | 0.00 | 0.00 | 21 | 980.5 |
| 20260503184732 | 31 | 317 | 0.0 | 8.0 | 0.00 | 0.00 | 0.00 | 22 | 980.6 |
| 20260503184233 | 31 | 286 | 0.0 | 3.2 | 0.00 | 0.00 | 0.00 | 20 | 980.7 |
| 20260503183733 | 31 | 286 | 0.0 | 4.8 | 0.00 | 0.00 | 0.00 | 20 | 980.8 |
| 20260503183232 | 30 | 269 | 1.6 | 4.8 | 0.00 | 0.00 | 0.00 | 22 | 980.9 |
| 20260503182732 | 30 | 286 | 0.0 | 3.2 | 0.00 | 0.00 | 0.00 | 22 | 980.9 |
| 20260503182233 | 30 | 286 | 0.0 | 9.7 | 0.00 | 0.00 | 0.00 | 22 | 981.1 |
| 20260503181733 | 30 | 324 | 0.0 | 9.7 | 0.00 | 0.00 | 0.00 | 22 | 981.1 |
| 20260503181233 | 30 | 312 | 0.0 | 6.4 | 0.00 | 0.00 | 0.00 | 22 | 981.2 |
| 20260503180732 | 30 | 290 | 0.0 | 3.2 | 0.00 | 0.00 | 0.00 | 22 | 981.3 |
| 20260503180233 | 30 | 272 | 0.0 | 14.5 | 0.00 | 0.00 | 0.00 | 20 | 981.4 |
| 20260503175732 | 30 | 320 | 0.0 | 14.5 | 0.00 | 0.00 | 0.00 | 21 | 981.5 |
| 20260503174732 | 30 | 307 | 0.0 | 6.4 | 0.00 | 0.00 | 0.00 | 20 | 981.3 |
| 20260503174232 | 30 | 307 | 1.6 | 6.4 | 0.00 | 0.00 | 0.00 | 20 | 981.3 |
| 20260503173732 | 29 | 357 | 0.0 | 4.8 | 0.00 | 0.00 | 0.00 | 21 | 981.3 |
| 20260503173233 | 29 | 18 | 0.0 | 4.8 | 0.00 | 0.00 | 0.00 | 21 | 981.3 |
| 20260503172733 | 29 | 313 | 0.0 | 4.8 | 0.00 | 0.00 | 0.00 | 21 | 981.3 |
| 20260503172231 | 28 | 313 | 0.0 | 3.2 | 0.00 | 0.00 | 0.00 | 22 | 981.4 |
| 20260503171233 | 28 | 313 | 1.6 | 6.4 | 0.00 | 0.00 | 0.00 | 23 | 981.4 |
| 20260503170731 | 28 | 241 | 0.0 | 3.2 | 0.00 | 0.00 | 0.00 | 25 | 981.3 |
| 20260503170233 | 28 | 266 | 0.0 | 3.2 | 0.00 | 0.00 | 0.00 | 25 | 981.4 |
| 20260503150732 | 25 | 250 | 0.0 | 1.6 | 0.00 | 0.00 | 0.00 | 36 | 981.2 |
| 20260503140233 | 22 | 220 | 0.0 | 0.0 | 0.00 | 0.00 | 0.00 | 39 | 980.7 |
| 20260503131232 | 21 | 220 | 0.0 | 0.0 | 0.00 | 0.00 | 0.00 | 44 | 979.8 |
| 20260503130732 | 21 | 220 | 0.0 | 1.6 | 0.00 | 0.00 | 0.00 | 44 | 979.8 |
| 20260503130233 | 21 | 220 | 0.0 | 1.6 | 0.00 | 0.00 | 0.00 | 43 | 979.7 |
| 20260503110735 | 22 | 351 | 0.0 | 0.0 | 0.00 | 0.00 | 0.00 | 40 | 979.3 |
| 20260503100236 | 22 | 351 | 0.0 | 0.0 | 0.00 | 0.00 | 0.00 | 37 | 979.9 |
| 20260503090235 | 24 | 351 | 0.0 | 0.0 | 0.00 | 0.00 | 0.00 | 31 | 980.0 |
| 20260503081236 | 25 | 351 | 0.0 | 0.0 | 0.00 | 0.00 | 0.00 | 29 | 980.2 |
| 20260503080734 | -17 | 0.0 | 0.0 | 0.00 | 0.00 | 0.00 | 980.1 | ||
| 20260503080235 | 25 | 351 | 0.0 | 0.0 | 0.00 | 0.00 | 0.00 | 30 | 980.1 |
| 20260503072740 | 25 | 351 | 0.0 | 0.0 | 0.00 | 0.00 | 0.00 | 30 | 980.3 |
| 20260503072237 | 25 | 351 | 0.0 | 0.0 | 0.00 | 0.00 | 0.00 | 30 | 980.3 |
| 20260503071736 | 25 | 351 | 0.0 | 0.0 | 0.00 | 0.00 | 0.00 | 30 | 980.3 |
| 20260503071235 | 25 | 351 | 0.0 | 0.0 | 0.00 | 0.00 | 0.00 | 30 | 980.2 |
| 20260503070736 | 25 | 351 | 0.0 | 0.0 | 0.00 | 0.00 | 0.00 | 30 | 980.2 |
| 20260503070234 | 25 | 351 | 0.0 | 0.0 | 0.00 | 0.00 | 0.00 | 30 | 980.3 |
| 20260503060232 | 26 | 351 | 0.0 | 0.0 | 0.00 | 0.00 | 0.00 | 28 | 979.8 |
| 20260503054233 | 26 | 351 | 0.0 | 0.0 | 0.00 | 0.00 | 0.00 | 28 | 979.6 |
| 20260503053733 | 26 | 351 | 0.0 | 0.0 | 0.00 | 0.00 | 0.00 | 28 | 979.6 |
| 20260503053233 | 26 | 351 | 0.0 | 0.0 | 0.00 | 0.00 | 0.00 | 28 | 979.5 |
| 20260503052733 | 27 | 351 | 0.0 | 0.0 | 0.00 | 0.00 | 0.00 | 27 | 979.5 |
| 20260503052234 | 27 | 351 | 0.0 | 0.0 | 0.00 | 0.00 | 0.00 | 27 | 979.5 |
| 20260503051732 | 27 | 351 | 0.0 | 0.0 | 0.00 | 0.00 | 0.00 | 27 | 979.4 |
| 20260503051231 | 27 | 351 | 0.0 | 0.0 | 0.00 | 0.00 | 0.00 | 27 | 979.4 |
| 20260503050733 | 27 | 351 | 0.0 | 0.0 | 0.00 | 0.00 | 0.00 | 27 | 979.3 |
| 20260503050232 | 27 | 351 | 0.0 | 0.0 | 0.00 | 0.00 | 0.00 | 27 | 979.1 |
| 20260503045733 | 27 | 351 | 0.0 | 1.6 | 0.00 | 0.00 | 0.00 | 27 | 979.1 |
| 20260503045231 | 27 | 351 | 0.0 | 1.6 | 0.00 | 0.00 | 0.00 | 27 | 979.1 |
| 20260503044733 | 27 | 351 | 0.0 | 1.6 | 0.00 | 0.00 | 0.00 | 27 | 979.3 |
| 20260503044233 | 27 | 351 | 0.0 | 1.6 | 0.00 | 0.00 | 0.00 | 27 | 979.2 |
| 20260503043734 | 27 | 351 | 0.0 | 3.2 | 0.00 | 0.00 | 0.00 | 26 | 979.0 |
| 20260503043233 | 28 | 351 | 0.0 | 3.2 | 0.00 | 0.00 | 0.00 | 26 | 979.1 |
| 20260503041732 | 28 | 350 | 0.0 | 0.0 | 0.00 | 0.00 | 0.00 | 26 | 978.9 |
| 20260503041233 | 28 | 348 | 0.0 | 3.2 | 0.00 | 0.00 | 0.00 | 26 | 978.9 |
| 20260503035733 | 28 | 350 | 0.0 | 0.0 | 0.00 | 0.00 | 0.00 | 26 | 978.6 |
| 20260503035232 | 28 | 348 | 0.0 | 1.6 | 0.00 | 0.00 | 0.00 | 26 | 978.5 |
| 20260503034733 | 28 | 350 | 0.0 | 1.6 | 0.00 | 0.00 | 0.00 | 26 | 978.5 |
| 20260503034232 | 28 | 350 | 0.0 | 4.8 | 0.00 | 0.00 | 0.00 | 26 | 978.5 |
| 20260503033732 | 28 | 348 | 0.0 | 4.8 | 0.00 | 0.00 | 0.00 | 26 | 978.4 |
| 20260503033233 | 28 | 348 | 1.6 | 1.6 | 0.00 | 0.00 | 0.00 | 26 | 978.4 |
| 20260503032732 | 28 | 348 | 0.0 | 1.6 | 0.00 | 0.00 | 0.00 | 26 | 978.3 |
| 20260503032232 | 28 | 347 | 0.0 | 0.0 | 0.00 | 0.00 | 0.00 | 26 | 978.2 |
| 20260503031732 | 28 | 348 | 0.0 | 1.6 | 0.00 | 0.00 | 0.00 | 26 | 978.2 |
| 20260503031233 | 29 | 347 | 0.0 | 4.8 | 0.00 | 0.00 | 0.00 | 26 | 978.2 |
| 20260503030732 | 29 | 348 | 1.6 | 8.0 | 0.00 | 0.00 | 0.00 | 26 | 978.1 |
| 20260503030233 | 29 | 345 | 1.6 | 9.7 | 0.00 | 0.00 | 0.00 | 26 | 978.1 |
| 20260503025733 | 29 | 341 | 3.2 | 9.7 | 0.00 | 0.00 | 0.00 | 26 | 977.9 |
| 20260503025231 | 29 | 343 | 1.6 | 19.3 | 0.00 | 0.00 | 0.00 | 26 | 977.9 |
| 20260503024733 | 29 | 327 | 4.8 | 19.3 | 0.00 | 0.00 | 0.00 | 26 | 978.0 |
| 20260503024232 | 29 | 341 | 3.2 | 14.5 | 0.00 | 0.00 | 0.00 | 25 | 977.9 |
| 20260503023732 | 30 | 341 | 4.8 | 14.5 | 0.00 | 0.00 | 0.00 | 25 | 977.8 |
| 20260503023233 | 30 | 333 | 0.0 | 11.3 | 0.00 | 0.00 | 0.00 | 25 | 978.0 |
| 20260503022732 | 30 | 343 | 1.6 | 11.3 | 0.00 | 0.00 | 0.00 | 25 | 977.9 |
| 20260503022233 | 30 | 347 | 3.2 | 16.1 | 0.00 | 0.00 | 0.00 | 25 | 977.7 |
| 20260503021731 | 30 | 345 | 8.0 | 16.1 | 0.00 | 0.00 | 0.00 | 25 | 977.7 |
| 20260503021231 | 30 | 338 | 3.2 | 16.1 | 0.00 | 0.00 | 0.00 | 25 | 977.7 |
| 20260503020233 | 30 | 347 | 4.8 | 16.1 | 0.00 | 0.00 | 0.00 | 24 | 977.5 |
| 20260503015736 | 31 | 331 | 6.4 | 19.3 | 0.00 | 0.00 | 0.00 | 24 | 977.3 |
| 20260503014735 | 31 | 329 | 6.4 | 19.3 | 0.00 | 0.00 | 0.00 | 24 | 977.2 |
| 20260503014236 | 31 | 334 | 4.8 | 20.9 | 0.00 | 0.00 | 0.00 | 24 | 977.0 |
| 20260503013736 | 31 | 321 | 6.4 | 20.9 | 0.00 | 0.00 | 0.00 | 24 | 976.9 |
| 20260503012733 | 31 | 336 | 6.4 | 25.7 | 0.00 | 0.00 | 0.00 | 24 | 977.0 |
| 20260503012234 | 31 | 338 | 12.9 | 25.7 | 0.00 | 0.00 | 0.00 | 24 | 976.9 |
| 20260503011735 | 32 | 326 | 8.0 | 22.5 | 0.00 | 0.00 | 0.00 | 24 | 976.9 |
| 20260503010735 | 32 | 331 | 3.2 | 20.9 | 0.00 | 0.00 | 0.00 | 23 | 976.8 |
| 20260503010236 | 32 | 324 | 8.0 | 20.9 | 0.00 | 0.00 | 0.00 | 23 | 976.7 |
| 20260503005238 | 33 | 351 | 8.0 | 24.1 | 0.00 | 0.00 | 0.00 | 23 | 976.8 |
| 20260503004735 | 33 | 357 | 11.3 | 24.1 | 0.00 | 0.00 | 0.00 | 23 | 976.7 |
| 20260503004235 | 33 | 337 | 9.7 | 25.7 | 0.00 | 0.00 | 0.00 | 23 | 976.8 |
| 20260503003735 | 33 | 357 | 8.0 | 25.7 | 0.00 | 0.00 | 0.00 | 23 | 976.7 |
| 20260503003236 | 33 | 338 | 8.0 | 27.4 | 0.00 | 0.00 | 0.00 | 23 | 976.6 |
| 20260503002735 | 33 | 333 | 14.5 | 27.4 | 0.00 | 0.00 | 0.00 | 23 | 976.5 |
| 20260503002234 | 33 | 355 | 4.8 | 20.9 | 0.00 | 0.00 | 0.00 | 22 | 976.4 |
| 20260503001736 | 33 | 341 | 11.3 | 22.5 | 0.00 | 0.00 | 0.00 | 22 | 976.5 |
| 20260503001235 | 34 | 351 | 9.7 | 22.5 | 0.00 | 0.00 | 0.00 | 22 | 976.5 |
| 20260503000736 | 34 | 0 | 6.4 | 22.5 | 0.00 | 0.00 | 0.00 | 22 | 976.5 |
| 20260502235234 | 34 | 345 | 0.0 | 14.5 | 0.00 | 0.00 | 0.00 | 20 | 976.4 |
| 20260502234735 | 34 | 345 | 1.6 | 14.5 | 0.00 | 0.00 | 0.00 | 20 | 976.5 |
| 20260502234235 | 34 | 28 | 0.0 | 3.2 | 0.00 | 0.00 | 0.00 | 20 | 976.4 |
| 20260502233736 | 34 | 358 | 0.0 | 1.6 | 0.00 | 0.00 | 0.00 | 20 | 976.3 |
| 20260502233235 | 34 | 358 | 0.0 | 1.6 | 0.00 | 0.00 | 0.00 | 20 | 976.3 |
| 20260502232735 | 35 | 358 | 0.0 | 11.3 | 0.00 | 0.00 | 0.00 | 20 | 976.3 |
| 20260502232236 | 34 | 358 | 0.0 | 17.7 | 0.00 | 0.00 | 0.00 | 20 | 976.4 |
| 20260502231734 | 34 | 350 | 6.4 | 17.7 | 0.00 | 0.00 | 0.00 | 20 | 976.4 |
| 20260502231236 | 34 | 344 | 0.0 | 19.3 | 0.00 | 0.00 | 0.00 | 20 | 976.2 |
| 20260502230734 | 35 | 347 | 6.4 | 19.3 | 0.00 | 0.00 | 0.00 | 20 | 976.2 |
| 20260502230235 | 35 | 337 | 1.6 | 6.4 | 0.00 | 0.00 | 0.00 | 19 | 976.2 |
| 20260502225734 | 35 | 52 | 0.0 | 4.8 | 0.00 | 0.00 | 0.00 | 19 | 976.3 |
| 20260502224735 | 35 | 20 | 0.0 | 1.6 | 0.00 | 0.00 | 0.00 | 19 | 976.4 |
| 20260502224235 | 35 | 47 | 0.0 | 1.6 | 0.00 | 0.00 | 0.00 | 19 | 976.4 |
| 20260502223734 | 35 | 0 | 0.0 | 3.2 | 0.00 | 0.00 | 0.00 | 19 | 976.5 |
| 20260502223235 | 35 | 0 | 0.0 | 3.2 | 0.00 | 0.00 | 0.00 | 19 | 976.5 |
| 20260502222734 | 35 | 1 | 0.0 | 8.0 | 0.00 | 0.00 | 0.00 | 19 | 976.6 |
| 20260502222234 | 35 | 348 | 0.0 | 9.7 | 0.00 | 0.00 | 0.00 | 19 | 976.6 |
| 20260502221735 | 35 | 0 | 4.8 | 11.3 | 0.00 | 0.00 | 0.00 | 19 | 976.6 |
| 20260502221235 | 35 | 331 | 3.2 | 11.3 | 0.00 | 0.00 | 0.00 | 19 | 976.7 |
| 20260502220735 | 35 | 1 | 1.6 | 4.8 | 0.00 | 0.00 | 0.00 | 19 | 976.7 |
| 20260502220236 | 35 | 0 | 0.0 | 6.4 | 0.00 | 0.00 | 0.00 | 19 | 976.7 |
| 20260502215734 | 35 | 0 | 1.6 | 8.0 | 0.00 | 0.00 | 0.00 | 19 | 976.5 |